Погода в Пуэрто Вьехо де Сарапики

Коста-Рика     10°27′03″N   84°00′59″W
темп.,
°C
ветер,
м/с
пор.,
м/с
влажн.,
%
обл.,
%
осадки,
мм/ч
давл.,
гПа
погр.,
м
2 марта, вт
вт200:00+20ююв11972 1.4 101224
03:00+20юв119893 0.0 101125
06:00+19ююв119888 0.0 101226
09:00+27в366729 0.2 1013987
12:00+31всв474517 0.3 10122012
15:00+30в475387 0.0 10101610
18:00+24в287847 0.1 1011390
21:00+21вюв159958 0.5 1014202
3 марта, ср
ср300:00+20юв139950 1.2 1013111
03:00+19юв129924 0.5 101385
06:00+20юв149952 1.1 101398
09:00+27вюв366783 0.2 10151066
12:00+31в373991 0.2 10131967
15:00+30всв4647100 0.0 10111608
18:00+23в268092 0.0 1012194
21:00+20юв129612 0.0 101528
4 марта, чт
чт400:00+20ююв119538 0.0 101528
03:00+19в119395 0.0 101425
06:00+19ююз118798 0.0 101524
09:00+26св1259100 0.0 1016478
12:00+31в2543100 0.0 10141981
15:00+30св455198 0.0 10121627
18:00+23в268897 0.6 1012207
21:00+21юв129868 0.6 101450
5 марта, пт
пт500:00+21юв119870 0.9 101425
03:00+20юв019879 0.0 101228
06:00+20ююв119953 0.1 101330
09:00+24вюв148486 0.5 1015399
12:00+29св456052 1.1 10121289
15:00+29всв355518 0.3 10101485
18:00+24всв267741 0.4 1011374
21:00+20вюв119539 0.0 101329
6 марта, сб
сб600:00+21в118958 0.0 101261
03:00+21ссв019291 0.1 101126
06:00+19ссз019956 0.3 101323
09:00+25в247382 0.3 1014760
12:00+30в345262 0.6 10121576
15:00+29всв455034 0.1 10091554
18:00+23в257532 0.1 1010192
21:00+20вюв128632 0.0 101343